This is the latest recevied weather packets stored in our database for station/object DK4DAX-2. If no packets are shown the sender has not sent any weather packets the latest 10 day(s).
| Time | Temp. | Humidity | Pressure | Rain* | Wind** | Luminosity | Snow |
|---|---|---|---|---|---|---|---|
| 1777535102 | 15° C | 19% | 1021.2 hPa | 0 mm | - | - | - |
| 1777534202 | 15° C | 20% | 1021.2 hPa | 0 mm | - | - | - |
| 1777533302 | 16.11° C | 17% | 1021.5 hPa | 0 mm | - | - | - |
| 1777532402 | 15° C | 20% | 1021.2 hPa | 0 mm | - | - | - |
| 1777531502 | 15.56° C | 18% | 1021.1 hPa | 0 mm | - | - | - |
| 1777530602 | 15.56° C | 19% | 1021.2 hPa | 0 mm | - | - | - |
| 1777529702 | 14.44° C | 21% | 1021.4 hPa | 0 mm | - | - | - |
| 1777528803 | 10.56° C | 21% | 1021.4 hPa | 0 mm | - | - | - |
| 1777527902 | 10.56° C | 22% | 1021.1 hPa | 0 mm | - | - | - |
| 1777527002 | 10° C | 24% | 1021.2 hPa | 0 mm | - | - | - |
| 1777526102 | 9.44° C | 24% | 1021.2 hPa | 0 mm | - | - | - |
| 1777525202 | 9.44° C | 25% | 1021.1 hPa | 0 mm | - | - | - |
| 1777524302 | 9.44° C | 25% | 1020.9 hPa | 0 mm | - | - | - |
| 1777523402 | 9.44° C | 25% | 1021 hPa | 0 mm | - | - | - |
| 1777522502 | 9.44° C | 25% | 1020.9 hPa | 0 mm | - | - | - |
| 1777521602 | 9.44° C | 25% | 1020.6 hPa | 0 mm | - | - | - |
| 1777520702 | 9.44° C | 26% | 1020.6 hPa | 0 mm | - | - | - |
| 1777519802 | 9.44° C | 26% | 1020.5 hPa | 0 mm | - | - | - |
| 1777518902 | 9.44° C | 26% | 1020.5 hPa | 0 mm | - | - | - |
| 1777518003 | 9.44° C | 26% | 1020.7 hPa | 0 mm | - | - | - |
| 1777517102 | 10° C | 26% | 1020.1 hPa | 0 mm | - | - | - |
| 1777516202 | 10° C | 25% | 1020.5 hPa | 0 mm | - | - | - |
| 1777515302 | 10° C | 25% | 1020.6 hPa | 0 mm | - | - | - |
| 1777514402 | 10° C | 24% | 1020.4 hPa | 0 mm | - | - | - |
| 1777513502 | 10.56° C | 28% | 1020.4 hPa | 0 mm | - | - | - |
* Rain latest hour (hover to see other rain measurements)
** Current wind speed in m/s (hover to see current wind gust speed)